This demonstration page uses our WeatherBlox Daily Observations layout. Learn more.

41.55636, -103.73856

Hourly Observations for September 17, 2017

Temp ( °F °C ) Dew Point ( °F °C ) Humidity (%) Winds ( mph kmh ) Pressure ( in mb ) Visibility ( mi km ) Precip ( " mm )
12:53 am 00:53 Mostly Cloudy 48 8.9 43 6.1 83 83 NNW 6 9 30.16 1022 10 16.0934 0 0
1:53 am 01:53 Mostly Cloudy 48 8.9 44 6.7 86 86 NNE 5 7 30.15 1021 10 16.0934 0 0
2:53 am 02:53 Clear 46 7.8 42 5.6 86 86 NNE 7 11 30.14 1021 10 16.0934 0 0
3:53 am 03:53 Mostly Cloudy 45 7.2 42 5.6 90 90 Calm 30.14 1021 10 16.0934 0 0
4:08 am 04:08 Cloudy 46 7.8 43 6.1 89 89 ENE 3 6 30.15 1021 10 16.0934 0 0
4:16 am 04:16 Cloudy 47 8.3 44 6.7 90 90 E 7 11 30.15 1021 10 16.0934 0 0
4:48 am 04:48 Cloudy 46 8 43 6 87 87 ESE 5 7 30.15 1021 10 16.0934 0 0
4:53 am 04:53 Mostly Cloudy 47 8.3 43 6.1 86 86 E 6 9 30.13 1020 10 16.0934 0 0
5:41 am 05:41 Cloudy 47 8.3 44 6.7 90 90 ESE 7 11 30.18 1022 10 16.0934 0 0
5:48 am 05:48 Cloudy 46 8 45 7 93 93 ESE 5 7 30.18 1022 10 16.0934 0 0
5:53 am 05:53 Mostly Cloudy 47 8.3 44 6.7 90 90 ESE 6 9 30.14 1021 10 16.0934 0 0
6:40 am 06:40 Cloudy 48 9 45 7 87 87 ESE 8 13 30.18 1022 10 16.0934 0 0
6:53 am 06:53 Cloudy 48 8.9 45 7.2 89 89 SE 8 13 30.16 1021 10 16.0934 0 0
7:49 am 07:49 Cloudy 50 10 46 8 88 88 ESE 10 17 30.12 1020 10 16.0934 0 0
7:53 am 07:53 Cloudy 50 10 46 7.8 86 86 ESE 10 17 30.15 1021 10 16.0934 0 0
8:36 am 08:36 Cloudy 52 11.1 47 8.3 83 83 ESE 10 17 30.12 1020 10 16.0934 0 0
8:53 am 08:53 Cloudy 53 11.7 47 8.3 80 80 SE 13 20 30.13 1020 10 16.0934 0 0
9:02 am 09:02 Cloudy 54 12 46 8 77 77 ESE 14 22 30.09 1019 10 16.0934 0 0
9:26 am 09:26 Cloudy 54 12 48 9 82 82 SE 13 20 30.09 1019 10 16.0934 0 0
9:53 am 09:53 Mostly Cloudy 57 13.9 48 8.9 72 72 SE 15 24 30.12 1020 10 16.0934 0 0
10:53 am 10:53 Cloudy 61 16.1 46 7.8 58 58 SE 13 20 30.1 1019 10 16.0934 0 0
11:53 am 11:53 Sunny 67 19.4 46 7.8 47 47 SSE 22 35 30.04 1017 10 16.0934 0 0
12:53 pm 12:53 Sunny 70 21.1 47 8.3 44 44 SSE 20 31 30.01 1016 10 16.0934 0 0
1:53 pm 13:53 Sunny 73 22.8 48 8.9 41 41 SSE 21 33 29.96 1014 10 16.0934 0 0
2:53 pm 14:53 Sunny 74 23.3 46 7.8 37 37 SE 24 39 29.91 1013 10 16.0934 0 0
3:53 pm 15:53 Partly Cloudy 76 24.4 46 7.8 35 35 SSE 18 30 29.89 1012 10 16.0934 0 0
4:53 pm 16:53 Mostly Cloudy 71 21.7 48 8.9 44 44 SE 10 17 29.89 1012 10 16.0934 0 0
5:04 pm 17:04 Cloudy with Nearby Thunderstorms 71 21.7 48 8.9 44 44 SE 9 15 29.77 1008 10 16.0934 0 0
5:22 pm 17:22 Cloudy with Light Thunderstorms 59 15 47 8.3 64 64 W 18 30 29.91 1013 6 9.65604 0 0.0254
5:33 pm 17:33 Cloudy with Heavy Thunderstorms 57 13.9 51 10.6 81 81 WNW 26 43 29.94 1014 2 3.21868 0.16 4.064
5:45 pm 17:45 Cloudy with Heavy Thunderstorms 57 13.9 52 11.1 83 83 NW 9 15 29.97 1015 1.25 2.011675 0.38 9.652
5:53 pm 17:53 Cloudy with Heavy Thunderstorms 57 13.9 52 11.1 83 83 N 6 9 30 1016 1.25 2.011675 0.54 13.716
5:59 pm 17:59 Cloudy with Thunderstorms 58 14.4 53 11.7 84 84 SSE 3 6 29.91 1013 3 4.82802 0.02 0.508
6:22 pm 18:22 Mostly Cloudy with Nearby Thunderstorms 57 14 54 12 88 88 SSE 12 19 29.91 1013 10 16.0934 0 0
6:36 pm 18:36 Mostly Cloudy with Light Thunderstorms 57 14 52 11 82 82 ESE 9 15 29.88 1012 10 16.0934 0 0
6:53 pm 18:53 Cloudy with Light Thunderstorms 57 13.9 52 11.1 83 83 ESE 10 17 29.96 1015 10 16.0934 0.03 0.762
7:08 pm 19:08 Cloudy with Nearby Thunderstorms 55 13 54 12 94 94 ESE 12 19 29.91 1013 10 16.0934 0 0
7:53 pm 19:53 Mostly Cloudy 56 13.3 52 11.1 87 87 undefined N/A 29.96 1014 10 16.0934 0 0.0254
8:38 pm 20:38 Mostly Clear with Nearby Thunderstorms 55 12.8 52 11.1 90 90 SE 18 30 29.91 1013 10 16.0934 0 0
8:53 pm 20:53 Mostly Cloudy 56 13.3 52 11.1 87 87 SE 13 20 29.96 1015 10 16.0934 0 0
9:53 pm 21:53 Mostly Clear 56 13.3 52 11.1 87 87 ESE 9 15 29.96 1015 10 16.0934 0 0
10:53 pm 22:53 Clear 54 12.2 51 10.6 90 90 ESE 7 11 29.93 1014 10 16.0934 0 0
11:53 pm 23:53 Clear 52 11.1 49 9.4 89 89 ESE 7 11 29.91 1013 10 16.0934 0 0

Powered by AerisWeather